Location: PSU-Greenbush Astrophysical Observatory
(37.5140°N, 94.9880°W)
Time: 08:36:29
(UTC-06:00)

deb Explorer IX - Pass Details

Date: 26 January 2020
Orbit: 549 x 1099 km, 38.8° (Epoch: 28 February)

Event Time Altitude Azimuth Distance (km) Brightness Sun altitude
Rises 23:17:24 0° 268° (W) 3,783 - -64.9°
Reaches altitude 10° 23:20:03 10° 270° (W) 2,878 - -65.3°
Maximum altitude 23:27:14 81° 357° (N) 1,112 - -66.3°
Drops below altitude 10° 23:34:32 10° 86° (E) 2,920 - -67.2°
Sets 23:37:14 0° 87° (E) 3,842 - -67.5°
